Regional Weather Roundup
Issued by NWS

Home | Current Version | Previous Version | Text Only | Print | Product List | Glossary Off
Versions: 1 2 3 4 5 6 7 8 9 10 11 12 13 14 15 16 17 18 19 20 21 22 23 24 25 26 27 28 29 30 31 32 33 34 35 36 37 38 39 40 41 42 43 44 45 46 47 48 49 50

745
ASUS43 KDTX 212110
RWRMI
MICHIGAN HOURLY REGIONAL WEATHER ROUNDUP
NATIONAL WEATHER SERVICE DETROIT/PONTIAC MI
500 PM EDT THU MAY 21 2015

NOTE: "FAIR" INDICATES FEW OR NO CLOUDS BELOW 12,000 FEET WITH NO
SIGNIFICANT WEATHER AND/OR OBSTRUCTION TO VISIBILITY.

MIZ047>049-052>055-059>063-066>070-074>076-081>083-212200-
SOUTHEAST LOWER MICHIGAN

CITY           SKY/WX    TMP DP  RH WIND       PRES   REMARKS
ADRIAN         CLOUDY    62  37  39 W16G24    30.00S
ALMA           MOSUNNY   66  33  29 W16G22    29.94S
ANN ARBOR      CLOUDY    62  40  44 W16       29.97S
BAD AXE        PTSUNNY   67  30  25 W15G23    29.88F
CARO           PTSUNNY   66  37  34 W9G23     29.90R
DETROIT CITY   CLOUDY    62  36  37 W13G18    29.95S
DETROIT        CLOUDY    65  39  38 W8        29.96S
FLINT          PTSUNNY   66  35  31 W17G24    29.94R
GROSSE ILE     CLOUDY    63  36  36 SW9       29.95F
HILLSDALE      PTSUNNY   63  36  37 SW10G16   30.00F
HOWELL         PTSUNNY   63  36  36 W13G24    29.96S

CITY           SKY/WX    TMP DP  RH WIND       PRES   REMARKS
JACKSON        PTSUNNY   62  39  42 W13G18    29.98F
LAMBERTVILLE   PTSUNNY   63  36  36 W9G16     29.99S
LANSING        MOSUNNY   64  34  32 W17G24    29.98R
LAPEER         FAIR      65  31  27 W10G24    29.92S
MASON          PTSUNNY   62  35  36 W12G17    29.97S
MONROE         CLOUDY    63  37  39 W12       29.96F
MT. CLEMENS    CLOUDY    65  39  38 SW8       29.91S
PONTIAC        CLOUDY    62  37  39 W14       29.94S
PORT HOPE        N/A     68  32  26 VRB7G17   29.84F
PORT HURON     CLOUDY    63  37  39 SW7       29.92S
TRI CITIES     PTSUNNY   69  35  28 SW16G24   29.91S
MIDLAND        FAIR      68  31  25 W14       29.89S
TROY           CLOUDY    65  36  34 W16       29.96S
SAGINAW HB     PTSUNNY   68  32  26 W17       29.90S
$$
MIZ043>046-050>051-056>058-064>065-071>073-077>080-212200-
SOUTHWEST LOWER MICHIGAN

CITY           SKY/WX    TMP DP  RH WIND       PRES   REMARKS
BATTLE CREEK   SUNNY     63  34  33 W21G26    30.02R
BENTON HARBOR  SUNNY     60  38  43 W13       30.04F
BIG RAPIDS     MOSUNNY   67  29  24 W15       29.92F
COLDWATER      SUNNY     62  37  39 W16       30.01S
FREMONT        FAIR      64  33  31 SW10G20   29.97S
HOLLAND        SUNNY     61  38  42 SW16G24   30.02F
GRAND RAPIDS   MOSUNNY   63  33  32 W17       30.00R
IONIA          FAIR      65  31  29 W17G24    29.97S
KALAMAZOO      SUNNY     63  32  31 NW16G22   30.03S
LUDINGTON      MOSUNNY   61  38  42 S13       29.94F
MARSHALL       MOSUNNY   63  39  41 W14G21    29.99S
MOUNT PLEASANT MOSUNNY   68  31  25 W10       29.91S
MUSKEGON       MOSUNNY   59  38  45 SW16G22   29.99F
SOUTH HAVEN    SUNNY     59  33  37 SW12      30.04S
$$
MIZ016>042-212200-
NORTHERN LOWER MICHIGAN

CITY           SKY/WX    TMP DP  RH WIND       PRES   REMARKS
ALPENA         CLOUDY    66  34  30 NW14G22   29.84S
BEAVER ISLAND  SUNNY     56  32  40 NW12G20   29.94R
BELLAIRE       MOSUNNY   60  35  39 NW6       29.93S
CADILLAC       PTSUNNY   68  36  30 W14G20    29.90S
CHARLEVOIX     CLOUDY    53  38  56 W12G18    29.96S
FRANKFORT      MOSUNNY   60  36  41 NW7       29.94R
GAYLORD        MOSUNNY   60  34  37 W15G23    29.90R
GRAYLING       PTSUNNY   61  34  36 W16G23    29.91R
HARBOR SPRINGS PTSUNNY   50  39  67 SW10      29.92S
HOUGHTON LAKE  PTSUNNY   66  32  28 W12       29.89S
MANISTEE       MOSUNNY   63  39  42 SW10G16   29.92F
OSCODA         PTSUNNY   68  32  26 N8G40     29.83R
PELLSTON       SUNNY     62  30  29 NW18G29   29.90R
ROGERS CITY    MOSUNNY   62  37  38 NW14G21   29.86R
TRAVERSE CITY  PTSUNNY   63  36  36 N12G21    29.92R
$$
MIZ007>008-015-212200-
EASTERN UPPER MICHIGAN

CITY           SKY/WX    TMP DP  RH WIND       PRES   REMARKS
KINROSS        SUNNY     54  27  35 NW25      29.88S
MACKINAC ISLAN SUNNY     57  39  51 W13       29.88S
NEWBERRY       SUNNY     53  28  37 NW20G28   29.94R
S. S. MARIE    SUNNY     51  31  46 NW18G35   29.89R
MUNISING         N/A     50  30  46 NW13      30.00R
$$
MIZ004>006-011>014-085-212200-
CENTRAL UPPER MICHIGAN

CITY           SKY/WX    TMP DP  RH WIND       PRES   REMARKS
MANISTIQUE     SUNNY     58  27  30 NW16G26   29.95S
ESCANABA       SUNNY     61  28  29 NE12G17   29.94S
MENOMINEE      PTSUNNY   57  37  47 E14       29.93R
SAWYER-GWINN   SUNNY     54  27  35 NE15G25   29.98R
$$
MIZ001>003-009>011-084-212200-
WESTERN UPPER MICHIGAN

CITY           SKY/WX    TMP DP  RH WIND       PRES   REMARKS
IRON MOUNTAIN  PTSUNNY   69  34  27 N12G17    29.91R
HOUGHTON       SUNNY     58  29  33 N7G17     29.99R
COPPER HARBOR    N/A     49  34  56 N8        30.01R
IRONWOOD       SUNNY     61  30  31 NW9G21    29.99F
$$

ABBREVIATIONS USED IN REMARKS
   TC - TEMPERATURE IN CELSIUS
  WCI - WIND CHILL INDEX
   HX - HEAT INDEX
  VSB - VISIBILITY




USA.gov is the U.S. government's official web portal to all federal, state and local government web resources and services.